sat.trackr.live / text

‹ back to catalog

KUIPER-00522

NORAD 69602 · 2026-140L

PAYLOAD ACTIVE UNKNOWN

§ Identity

Operator
Country
US
Launch date
2026-06-17
Launch site
FRGUI
Launch vehicle
Mass (kg)
RCS (m²)

External: N2YO · Heavens-Above · Gunter

§ Orbital elements

Epoch: 2026-09-20T04:00:03.000096Z

Period
97.15 min
Inclination
51.9024°
Eccentricity
0.0008507
Mean motion
14.82180383 rev/d
Perigee alt
616.5 km
Apogee alt
628.4 km
Semi-major
7,000.6 km
B*
-7.3495e-4
RAAN
305.6807°
Arg perigee
140.4705°
Mean anomaly
86.8661°
Rev number
374

§ Raw data

KUIPER-005221 69602U 26140L   26263.16670139 -.00006138  00000+0 -73495-3 0  99982 69602  51.9024 305.6807 0008507 140.4705  86.8661 14.82180383  3743

JSON: /api/v1/satellites/69602 · /tle

For live sub-satellite position, see the globe view (requires WebGL).

§ Visibility from observer

Set your observer location to see the next 7 days of passes ≥ 10°. The values pass through the URL so the page stays shareable.

No JS? Fill the form by hand. The geolocation button needs JavaScript.